EW1417 Weather Reports


Display with metric or nautical units.
time (UTC)temp
F
wind
direction
speed
MPH
gust
MPH
rain 1hr
in
rain 24hr
in
rain mn
in
humidity
%
barometer
mb
20210120033023 22 340 2.0 11.0 0.00 0.00 0.00 88 1018.5
20210120031519 22 295 2.0 10.0 0.00 0.00 0.00 87 1018.4
20210120030109 22 281 4.0 10.0 0.00 0.00 0.00 86 1018.5
20210120024548 22 269 3.0 11.0 0.00 0.00 0.00 84 1018.5
20210120023014 22 274 5.0 12.0 0.00 0.00 0.00 85 1018.4
20210120021527 22 253 5.0 10.0 0.00 0.00 0.00 86 1018.4
20210120020022 22 279 5.0 11.0 0.00 0.00 0.00 87 1018.5
20210120014524 22 278 5.0 11.0 0.00 0.00 0.00 88 1018.5
20210120013030 22 279 3.0 13.0 0.00 0.00 0.00 88 1018.4
20210120011525 22 290 3.0 8.0 0.00 0.00 0.00 88 1018.5
20210120010059 22 294 4.0 10.0 0.00 0.00 0.00 86 1018.4
20210120004540 22 218 3.0 9.0 0.00 0.00 0.00 84 1018.4
20210120003018 23 251 4.0 11.0 0.00 0.00 0.00 81 1018.2
20210120001538 23 229 5.0 9.0 0.00 0.00 0.00 79 1018.4
20210120000028 23 242 4.0 9.0 0.00 0.00 0.00 77 1018.3
20210119234537 23 237 4.0 9.0 0.00 0.00 0.00 75 1018.2
20210119231518 24 244 5.0 12.0 0.00 0.00 0.00 73 1018.3
20210119230025 24 213 2.0 8.0 0.00 0.00 0.00 74 1018.3
20210119224529 24 234 3.0 7.0 0.00 0.00 0.00 76 1018.2
20210119221529 24 254 4.0 8.0 0.00 0.00 0.00 72 1018.3
20210119220029 24 273 3.0 9.0 0.00 0.00 0.00 71 1018.2
20210119214523 24 258 5.0 9.0 0.00 0.00 0.00 71 1018.1
20210119213040 24 252 4.0 10.0 0.00 0.00 0.00 72 1018.2
20210119211541 24 276 4.0 9.0 0.00 0.00 0.00 72 1018.2
20210119210104 24 241 5.0 10.0 0.00 0.00 0.00 71 1018.2
20210119204550 24 259 4.0 12.0 0.00 0.00 0.00 72 1018.5
20210119203028 24 216 5.0 10.0 0.00 0.00 0.00 71 1018.4
20210119201548 24 244 6.0 11.0 0.00 0.00 0.00 73 1018.4
20210119200049 24 282 4.0 12.0 0.00 0.00 0.00 73 1018.5
20210119194608 24 246 5.0 11.0 0.00 0.00 0.00 72 1018.6
20210119193041 24 217 7.0 12.0 0.00 0.00 0.00 70 1018.4
20210119191531 24 243 6.0 10.0 0.00 0.00 0.00 73 1018.2
20210119190101 24 242 6.0 12.0 0.00 0.00 0.00 72 1018.3
20210119184529 24 248 8.0 12.0 0.00 0.01 0.00 71 1018.4
20210119183108 25 223 6.0 13.0 0.00 0.01 0.00 72 1018.5
20210119181529 24 271 7.0 13.0 0.00 0.01 0.00 73 1018.6
20210119180054 24 225 6.0 15.0 0.00 0.01 0.00 71 1018.8
20210119174529 24 264 9.0 14.0 0.00 0.01 0.00 71 1018.9
20210119173024 26 280 8.0 15.0 0.00 0.01 0.00 68 1019.0
20210119171528 25 234 7.0 14.0 0.00 0.01 0.00 71 1019.1
20210119170022 24 249 5.0 13.0 0.00 0.01 0.00 74 1019.0
20210119164518 24 273 5.0 10.0 0.00 0.01 0.00 76 1019.1
20210119163218 24 234 6.0 11.0 0.00 0.01 0.00 77 1019.2
20210119160021 24 272 7.0 13.0 0.00 0.01 0.00 77 1019.2
20210119154518 24 221 5.0 12.0 0.00 0.01 0.00 76 1018.9
20210119153329 24 223 8.0 14.0 0.00 0.01 0.00 77 1018.9
20210119151706 23 238 7.0 15.0 0.00 0.01 0.00 77 1018.8
20210119144632 23 238 9.0 14.0 0.00 0.01 0.00 78 1018.6
20210119143123 23 267 8.0 16.0 0.00 0.01 0.00 79 1018.5
20210119141611 23 212 8.0 13.0 0.00 0.01 0.00 79 1018.2
20210119140158 23 241 8.0 15.0 0.00 0.01 0.00 79 1018.1
20210119134648 23 256 8.0 15.0 0.00 0.01 0.00 77 1017.6
20210119133132 23 242 6.0 16.0 0.00 0.01 0.00 77 1017.7
20210119131640 24 227 9.0 16.0 0.00 0.01 0.00 77 1017.6
20210119130119 24 276 9.0 15.0 0.00 0.01 0.00 77 1017.6
20210119124624 24 240 5.0 16.0 0.00 0.01 0.00 79 1017.7
20210119123046 24 237 8.0 15.0 0.00 0.01 0.00 79 1017.7
20210119121654 24 236 6.0 15.0 0.00 0.01 0.00 78 1017.5
20210119120133 24 259 7.0 12.0 0.00 0.01 0.00 78 1017.5
20210119114555 24 268 6.0 11.0 0.00 0.01 0.00 77 1017.2
20210119113037 24 246 7.0 12.0 0.00 0.01 0.00 78 1017.1
20210119111557 24 254 6.0 12.0 0.00 0.01 0.00 78 1017.1
20210119110048 24 250 3.0 11.0 0.00 0.01 0.00 78 1016.9
20210119104612 24 264 5.0 12.0 0.00 0.01 0.00 78 1017.0
20210119103052 24 240 6.0 13.0 0.00 0.01 0.00 78 1017.0
20210119101617 24 257 6.0 12.0 0.00 0.01 0.00 77 1017.1
20210119100106 24 248 9.0 14.0 0.00 0.01 0.00 76 1017.0
20210119094634 24 252 6.0 12.0 0.00 0.01 0.00 76 1016.8
20210119093051 25 244 7.0 12.0 0.00 0.01 0.00 76 1016.7
20210119091605 25 232 7.0 12.0 0.00 0.01 0.00 76 1016.6
20210119090109 25 264 5.0 10.0 0.00 0.01 0.00 75 1016.5
20210119084642 25 255 7.0 12.0 0.00 0.01 0.00 74 1016.5
20210119083023 25 233 7.0 15.0 0.00 0.01 0.00 73 1016.4
20210119081537 25 221 5.0 12.0 0.00 0.01 0.00 73 1016.5
20210119080041 26 232 6.0 16.0 0.00 0.01 0.00 71 1016.3
20210119074630 26 232 6.0 14.0 0.00 0.01 0.00 72 1015.9
20210119073102 26 271 8.0 13.0 0.00 0.01 0.00 71 1015.7
20210119071537 26 220 5.0 16.0 0.00 0.01 0.00 74 1015.4
20210119070051 26 212 7.0 15.0 0.00 0.01 0.00 75 1015.2
20210119064556 26 240 6.0 13.0 0.00 0.01 0.00 75 1015.1
20210119063041 26 208 10.0 15.0 0.00 0.01 0.00 76 1015.0
20210119061523 27 248 7.0 15.0 0.00 0.01 0.00 76 1014.8
20210119060052 27 252 5.0 11.0 0.00 0.01 0.00 76 1014.6
20210119054555 27 248 8.0 13.0 0.00 0.01 0.00 77 1014.5
20210119053055 27 259 5.0 13.0 0.00 0.01 0.00 77 1014.5
20210119051530 27 254 6.0 15.0 0.00 0.01 0.00 78 1014.4
20210119050036 27 222 6.0 11.0 0.00 0.01 0.00 77 1014.3
20210119044534 27 219 6.0 14.0 0.00 0.01 0.01 77 1014.3
20210119043018 27 201 8.0 17.0 0.00 0.01 0.01 77 1014.2
20210119041533 27 197 4.0 12.0 0.00 0.01 0.01 79 1014.1
20210119040040 28 221 8.0 14.0 0.00 0.01 0.01 81 1014.1
20210119034601 28 221 9.0 15.0 0.00 0.01 0.01 81 1014.0